STARLINK-11272 [DTC]

Last updated on Sat Sep 28 2024 00:02:03 GMT+0000 (Coordinated Universal Time)

1 60723U 24152D 24271.23295523 .00000281 00000+0 71740-5 0 9993 2 60723 53.1609 201.4432 0001072 86.0348 274.0792 15.69706184 5833
UTC large
Height (km)
Speed (km/s)
/
Latitude / Longitude
Inclination (degrees)
Orbital Period (minutes)
Azimuth
Elevation
Range (km)
Doppler Factor

Next 0 passes for location: London (51.5072 / 0.1276)

Sorry there are no passes over London.